Skip Page Navigation
NASA JPL Caltech
NASA Logo - Jet Propulsion Laboratory + View the NASA Portal
+ Center for Near-Earth Object Studies
JPL Home Earth Solar System Stars & Galaxies Technology
JPL Solar System Dynamics
BODIES ORBITS EPHEMERIDES TOOLS PHYSICAL DATA DISCOVERY FAQ SITE MAP
IMPORTANT: The SSD Announcement email list is now available. Major changes are coming in the near future, including possible hostname and/or URL changes. To be notified of such changes, subscribe to this email list.

Please visit this page for more details.


JPL Small-Body Database Browser
Search: [ help ]  
160687 (2000 EV164)
Classification: Main-belt Asteroid          SPK-ID: 2160687
Ephemeris | Orbit Diagram | Orbital Elements | Mission Design | Physical Parameters | Discovery Circumstances | Close-Approach Data ]

[ show orbit diagram ]
Orbital Elements at Epoch 2459000.5 (2020-May-31.0) TDB
Reference: JPL 16 (heliocentric ecliptic J2000)
 Element Value Uncertainty (1-sigma)   Units 
e .1360943742760298 5.0999e-08  
a 3.103797700844752 3.2073e-08 au
q 2.681388294868905 1.5812e-07 au
i 5.843749100584765 7.5964e-06 deg
node 357.1652103809654 5.1843e-05 deg
peri 292.6403180073603 5.8315e-05 deg
M 152.2239278762315 2.7531e-05 deg
tp 2458155.962456459976
(2018-Feb-06.46245646)
0.00015142 TDB
period 1997.278088380487
5.47
3.0958e-05
8.476e-08
d
yr
n .1802453058962408 2.7938e-09 deg/d
Q 3.526207106820598 3.6438e-08 au
  Orbit Determination Parameters
   # obs. used (total)      402  
   data-arc span      7270 days (19.90 yr)  
   first obs. used      2000-03-03  
   last obs. used      2020-01-28  
   planetary ephem.      DE431  
   SB-pert. ephem.      SB431-N16  
   condition code      0  
   norm. resid. RMS      .62045  
   source      ORB  
   producer      Otto Matic  
   solution date      2020-Feb-24 13:23:08  

Additional Information
 Earth MOID = 1.67232 au 
 Jupiter MOID = 1.70422 au 
 T_jup = 3.199 
[ show covariance matrix ]

Ephemeris | Orbit Diagram | Orbital Elements | Mission Design | Physical Parameters | Discovery Circumstances | Close-Approach Data ]

Physical Parameter Table
Parameter Symbol Value Units Sigma Reference Notes
absolute magnitude H 15.1   n/a MPO270737  

160687 (2000 EV164)          Discovered 2000-Mar-03 by LINEAR at Socorro
Reference: 20070828/Numbers.arcLast Updated: 2007-08-30

[ show close-approach data ]
Alternate Designations
 2000 EV164 = 2002 RC103 
Ephemeris | Orbit Diagram | Orbital Elements | Mission Design | Physical Parameters | Discovery Circumstances | Close-Approach Data ]
ABOUT SSD CREDITS/AWARDS PRIVACY/COPYRIGHT GLOSSARY LINKS
FirstGov 2020-May-29 20:41 UT
(server date/time)  
NASA Home Page
Site Manager:   Ryan S. Park
Webmaster  Alan B. Chamberlin